World > North America > United States > Utah   City of Park City, UT

Park City, Utah Regional Weather

Lat: 40.66N, Lon: 111.49W
Wx Zone: UTZ108Web Search
Park City Weather Warning NWS WEATHER ALERT FOR THE PARK CITY, UT AREA - Issued: 251 AM MDT Mon Jun 21 2021 Park City Weather Warning  

If you are on your PC, you can easily pass this page to your phone by scanning the QR Code near the bottom with your camera.

Feedback


°F Click to change Park City hourly weather to Imperial units.Click to change Park City hourly weather to Metric units. °C
Park City Weather Map
UTC Time: 6/21/2021, 19:51
Your Time:

Park City, UT Regional Weather

Expires:202106212000;;632983
ASUS45 KSLC 211910
RWRUT 

UTAH REGIONAL WEATHER ROUNDUP
NATIONAL WEATHER SERVICE SALT LAKE CITY UT
100 PM MDT MON JUN 21 2021


UTZ101>105-107>111-212000-

NORTHERN UTAH
  
CITY           SKY/WX    TMP DP  RH WIND       PRES   REMARKS
BRIGHAM CITY   SUNNY     85  33  15 W5        30.06F                  
HILL AFB       SUNNY     83  34  17 S5        30.08F                  
LOGAN          SUNNY     81  46  29 CALM      30.07F                  
OGDEN          SUNNY     90  38  16 VRB5      30.06F                  
SALT LAKE CITY MOSUNNY   88  32  13 W7        30.04F                  
TOOELE VALLEY  SUNNY     84  50  30 N6        30.06F                  
WENDOVER       SUNNY     86  34  15 SE6       30.05F                  
HEBER CITY       N/A     82  34  17 NW5       30.13F                  
WEST JORDAN    SUNNY     85  49  28 NW3       30.08F                  

$$


SKY/WX - Weather  TMP - Temperature  DP - Dew Point  RH - Relative Humidity
WIND - Wind Direction/Speed PRES - Barometric Pressure VSB - Visibility
WCI - Wind Chill Index E13G22 Wind - East Wind 13 mph/Gusts of 22 mph